TimeMST,TemperatureF,Dew PointF,Humidity,Sea Level PressureIn,VisibilityMPH,Wind Direction,Wind SpeedMPH,Gust SpeedMPH,PrecipitationIn,Events,Conditions,WindDirDegrees,DateUTC
12:15 AM,36.7,20.1,51,30.48,10.0,West,8.1,-,N/A,,Clear,260,2012-11-05 07:15:00
12:35 AM,35.2,20.7,55,30.47,10.0,West,6.9,-,N/A,,Clear,260,2012-11-05 07:35:00
12:55 AM,36.1,20.3,53,30.47,10.0,WNW,4.6,-,N/A,,Clear,290,2012-11-05 07:55:00
1:15 AM,34.2,20.1,57,30.46,10.0,West,8.1,-,N/A,,Clear,270,2012-11-05 08:15:00
1:35 AM,33.3,20.1,59,30.46,10.0,WNW,5.8,-,N/A,,Clear,300,2012-11-05 08:35:00
1:55 AM,33.8,20.3,58,30.46,10.0,WNW,3.5,-,N/A,,Clear,300,2012-11-05 08:55:00
2:15 AM,34.7,20.7,57,30.45,10.0,WNW,3.5,-,N/A,,Clear,300,2012-11-05 09:15:00
2:35 AM,32.2,19.9,61,30.45,10.0,Calm,Calm,-,N/A,,Clear,0,2012-11-05 09:35:00
2:55 AM,31.8,19.8,61,30.45,10.0,Calm,Calm,-,N/A,,Clear,0,2012-11-05 09:55:00
3:15 AM,30.7,20.1,65,30.45,10.0,Calm,Calm,-,N/A,,Clear,0,2012-11-05 10:15:00
3:35 AM,32.5,21.0,63,30.44,10.0,WSW,5.8,-,N/A,,Clear,240,2012-11-05 10:35:00
3:55 AM,31.5,20.8,65,30.44,10.0,West,5.8,-,N/A,,Clear,270,2012-11-05 10:55:00
4:15 AM,30.9,20.8,66,30.44,10.0,West,4.6,-,N/A,,Clear,280,2012-11-05 11:15:00
4:35 AM,30.9,20.8,66,30.45,10.0,Calm,Calm,-,N/A,,Clear,0,2012-11-05 11:35:00
4:55 AM,30.0,20.5,68,30.45,10.0,Calm,Calm,-,N/A,,Clear,0,2012-11-05 11:55:00
5:15 AM,29.3,20.8,71,30.45,10.0,Calm,Calm,-,N/A,,Clear,0,2012-11-05 12:15:00
5:35 AM,30.2,20.8,68,30.44,10.0,Calm,Calm,-,N/A,,Clear,0,2012-11-05 12:35:00
5:55 AM,29.8,20.3,68,30.44,10.0,Calm,Calm,-,N/A,,Clear,0,2012-11-05 12:55:00
6:15 AM,29.5,20.3,69,30.44,10.0,Calm,Calm,-,N/A,,Clear,0,2012-11-05 13:15:00
6:35 AM,30.6,20.7,67,30.44,10.0,Calm,Calm,-,N/A,,Clear,0,2012-11-05 13:35:00
6:55 AM,30.7,20.7,66,30.45,10.0,SW,3.5,-,N/A,,Clear,230,2012-11-05 13:55:00
7:15 AM,33.1,22.1,64,30.45,10.0,NW,3.5,-,N/A,,Clear,320,2012-11-05 14:15:00
7:35 AM,37.6,23.0,56,30.46,10.0,Calm,Calm,-,N/A,,Clear,0,2012-11-05 14:35:00
7:55 AM,40.1,23.7,52,30.46,10.0,SW,3.5,-,N/A,,Clear,220,2012-11-05 14:55:00
8:15 AM,41.4,23.7,50,30.46,10.0,Calm,Calm,-,N/A,,Clear,0,2012-11-05 15:15:00
8:35 AM,45.0,24.3,44,30.47,10.0,NNW,3.5,-,N/A,,Clear,340,2012-11-05 15:35:00
8:55 AM,43.9,23.9,45,30.47,10.0,North,3.5,-,N/A,,Clear,360,2012-11-05 15:55:00
9:15 AM,48.0,24.4,40,30.46,10.0,North,3.5,-,N/A,,Clear,350,2012-11-05 16:15:00
9:35 AM,49.5,25.2,39,30.45,10.0,North,4.6,-,N/A,,Clear,350,2012-11-05 16:35:00
9:55 AM,51.1,25.9,38,30.44,10.0,North,6.9,-,N/A,,Clear,350,2012-11-05 16:55:00
10:15 AM,51.4,25.5,37,30.44,10.0,North,6.9,-,N/A,,Clear,350,2012-11-05 17:15:00
10:35 AM,54.3,25.3,33,30.44,10.0,North,8.1,-,N/A,,Clear,350,2012-11-05 17:35:00
10:55 AM,55.8,25.2,31,30.43,10.0,NNW,6.9,-,N/A,,Clear,330,2012-11-05 17:55:00
11:15 AM,56.5,24.8,30,30.42,10.0,NE,4.6,-,N/A,,Clear,40,2012-11-05 18:15:00
11:35 AM,57.2,23.4,27,30.41,10.0,Calm,Calm,-,N/A,,Clear,0,2012-11-05 18:35:00
11:55 AM,59.9,24.1,25,30.39,10.0,NNE,5.8,-,N/A,,Clear,30,2012-11-05 18:55:00
12:15 PM,59.5,23.7,25,30.38,10.0,NE,5.8,-,N/A,,Clear,40,2012-11-05 19:15:00
12:55 PM,61.2,21.4,22,30.35,10.0,West,3.5,-,N/A,,Clear,270,2012-11-05 19:55:00
1:15 PM,62.4,21.4,21,30.34,10.0,SW,6.9,-,N/A,,Clear,220,2012-11-05 20:15:00
1:35 PM,62.8,21.0,20,30.34,10.0,South,5.8,-,N/A,,Clear,190,2012-11-05 20:35:00
1:55 PM,63.1,21.0,20,30.33,10.0,Calm,Calm,-,N/A,,Clear,0,2012-11-05 20:55:00
2:15 PM,64.2,21.2,19,30.33,10.0,WSW,6.9,-,N/A,,Clear,250,2012-11-05 21:15:00
2:35 PM,64.8,21.2,19,30.33,10.0,WSW,15.0,21.9,N/A,,Clear,250,2012-11-05 21:35:00
2:55 PM,63.9,21.7,20,30.34,10.0,West,17.3,25.3,N/A,,Clear,260,2012-11-05 21:55:00
3:15 PM,62.8,22.3,21,30.33,10.0,WSW,13.8,19.6,N/A,,Clear,250,2012-11-05 22:15:00
3:55 PM,61.5,23.0,23,30.34,10.0,West,12.7,19.6,N/A,,Clear,260,2012-11-05 22:55:00
4:15 PM,59.7,23.9,25,30.34,10.0,West,12.7,-,N/A,,Clear,280,2012-11-05 23:15:00
4:35 PM,59.5,23.5,25,30.34,10.0,West,9.2,21.9,N/A,,Clear,280,2012-11-05 23:35:00
4:55 PM,58.6,23.7,26,30.34,10.0,West,15.0,24.2,N/A,,Clear,280,2012-11-05 23:55:00
5:15 PM,57.6,23.9,27,30.35,10.0,WNW,11.5,19.6,N/A,,Clear,290,2012-11-06 00:15:00
5:35 PM,57.7,24.1,27,30.35,10.0,WNW,10.4,25.3,N/A,,Clear,290,2012-11-06 00:35:00
5:55 PM,57.6,23.7,27,30.37,10.0,NW,13.8,19.6,N/A,,Clear,320,2012-11-06 00:55:00
6:15 PM,56.5,20.3,24,30.39,10.0,NW,6.9,-,N/A,,Clear,310,2012-11-06 01:15:00
6:35 PM,55.2,23.0,29,30.39,10.0,NW,11.5,-,N/A,,Clear,310,2012-11-06 01:35:00
6:55 PM,55.2,22.5,28,30.39,10.0,Calm,Calm,-,N/A,,Clear,0,2012-11-06 01:55:00
7:15 PM,54.0,21.4,28,30.39,10.0,North,11.5,16.1,N/A,,Clear,350,2012-11-06 02:15:00
7:55 PM,52.9,22.8,31,30.40,10.0,WNW,5.8,-,N/A,,Clear,290,2012-11-06 02:55:00
8:15 PM,52.0,22.5,32,30.40,10.0,NNW,6.9,-,N/A,,Clear,340,2012-11-06 03:15:00
8:35 PM,51.8,23.4,33,30.41,10.0,NW,8.1,-,N/A,,Clear,320,2012-11-06 03:35:00
8:55 PM,49.1,22.8,36,30.42,10.0,WSW,4.6,-,N/A,,Clear,240,2012-11-06 03:55:00
9:15 PM,48.2,23.0,37,30.42,10.0,WSW,5.8,-,N/A,,Clear,250,2012-11-06 04:15:00
9:35 PM,47.7,23.0,38,30.42,10.0,West,8.1,-,N/A,,Clear,270,2012-11-06 04:35:00
9:55 PM,44.4,22.8,43,30.42,10.0,West,9.2,-,N/A,,Clear,260,2012-11-06 04:55:00
10:15 PM,43.7,23.0,44,30.43,10.0,Calm,Calm,-,N/A,,Clear,0,2012-11-06 05:15:00
10:35 PM,40.1,22.3,49,30.43,10.0,WSW,3.5,-,N/A,,Clear,240,2012-11-06 05:35:00
10:55 PM,40.1,22.6,50,30.43,10.0,West,8.1,-,N/A,,Clear,270,2012-11-06 05:55:00
11:15 PM,39.2,22.5,51,30.44,10.0,WSW,4.6,-,N/A,,Clear,250,2012-11-06 06:15:00
11:35 PM,40.1,22.1,49,30.45,10.0,West,8.1,-,N/A,,Clear,260,2012-11-06 06:35:00
11:55 PM,39.6,21.9,49,30.45,10.0,West,5.8,-,N/A,,Clear,270,2012-11-06 06:55:00